Tracking 17140 objects as of 2-July-2015
HD Live streaming from Space Station

GLOBALSTAR M086

Track GLOBALSTAR M086 now!
10-day predictions
GLOBALSTAR M086 is classified as:


NORAD ID: 38045
Int'l Code: 2011-080F
Perigee: 1,420.1 km
Apogee: 1,421.4 km
Inclination: 52.0 °
Period: 114.1 minutes
Semi major axis: 7791 km
RCS: 4.511 m2 (large)
Launch date: December 28, 2011
Source: Globalstar (GLOB)
Your satellite tracking list
Your tracking list is empty





NASA's NSSDC Master Catalog

Two Line Element Set (TLE):
1 38045U 11080F   15181.77095416 -.00000082  00000-0  11987-3 0  9995
2 38045 051.9902 282.5460 0000843 138.1544 027.8514 12.62266767164043

Source of the keplerian elements: AFSPC

N2YO: 236